Regional Weather Roundup
Issued by NWS

Home | Current Version | Previous Version | Graphics & Text | Print | Product List | Glossary On
Versions: 1 2 3 4 5 6 7 8 9 10 11 12 13 14 15 16 17 18 19 20 21 22 23 24 25 26 27 28 29 30 31 32 33 34 35 36 37 38 39 40 41 42 43 44 45 46 47 48 49
000
ASUS45 KBOU 240407
RWRCO

WEATHER ROUNDUP FOR COLORADO
NATIONAL WEATHER SERVICE DENVER/BOULDER CO
900 PM MST TUE DEC 23 2014

NOTE: "FAIR" INDICATES FEW OR NO CLOUDS BELOW 12000 FEET WITH NO
SIGNIFICANT WEATHER AND/OR OBSTRUCTIONS TO VISIBILITY.

COZ001>005-013-030-031-240500-
...NORTHWEST COLORADO...

CITY           SKY/WX    TMP DP  RH WIND       PRES   REMARKS
CRAIG          FAIR       7   4  87 E3        30.26F
HAYDEN         FAIR      12   9  85 E5        30.23F WCI   4
MEEKER         FAIR       7   3  84 CALM      30.26F
MOUNT WERNER   NOT AVBL
STEAMBOAT SPGS CLOUDY    14   8  76 CALM      30.22F
WALDEN         FAIR      -2  -8  78 SE10      30.14F WCI -19
$$

COZ006>008-011-240500-
...WEST CENTRAL VALLEYS...

CITY           SKY/WX    TMP DP  RH WIND       PRES   REMARKS
GRAND JUNCTION FAIR      25  17  72 SE3       30.28F
MONTROSE       FAIR      22  12  65 SE12      30.30S WCI  10
EAGLE          CLEAR      9   3  78 VRB5      30.30R WCI   0
RIFLE          CLOUDY    22  11  62 SE9       30.29S WCI  12
DELTA          NOT AVBL
NUCLA          NOT AVBL
$$

COZ017>023-064>068-240500-
...SOUTHWEST COLORADO...

CITY           SKY/WX    TMP DP  RH WIND       PRES   REMARKS
DURANGO        FAIR      23   3  42 SW3       30.15R
CORTEZ         FAIR      22  10  60 E3        30.23S
PAGOSA SPRINGS NOT AVBL
TELLURIDE      NOT AVBL
WOLF CREEK PAS FAIR       0  -9  65 MISG      30.04S
$$

COZ009-010-012-014-032>034-037-058>063-240500-
...CENTRAL COLORADO...

CITY           SKY/WX    TMP DP  RH WIND       PRES   REMARKS
ASPEN          FAIR       4  -2  76 S8        30.22S WCI  -9
BUENA VISTA    NOT AVBL
COPPER MTN     CLOUDY     5  -4  66 W25G31    30.03F WCI -18
BERTHOUD PASS  NOT AVBL
COTTONWOOD PAS FAIR      14  -4  44 SW6G16    30.07S WCI   5
GUNNISON       FAIR       1  -2  85 NE3       30.23R
KREMMLING      CLOUDY    14   9  79 CALM      30.22S
LEADVILLE      FAIR      -2  -7  79 N10       30.11S WCI -19
SALIDA         NOT AVBL
SUNLIGHT       CLOUDY   N/A N/A N/A MISG      30.15S
WILKERSON PASS FAIR       1  -4  78 NW12G28   30.02S WCI -15
$$

COZ069>075-240500-
...SAN LUIS VALLEY/SANGRE DE CRISTO MOUNTAINS...

CITY           SKY/WX    TMP DP  RH WIND       PRES   REMARKS
ALAMOSA        FAIR      14   2  58 N3        30.14R
LA VETA PASS   FAIR       7   3  85 W5        30.05F WCI  -2
SAGUACHE       FAIR      14   1  57 N15       30.15S WCI  -1
$$

COZ035-036-038>040-240500-
...NORTHERN COLORADO FRONT RANGE...

CITY           SKY/WX    TMP DP  RH WIND       PRES   REMARKS
DENVER INTL AP FAIR      21   9  59 N7        30.14S WCI  12
DMNS CITY PARK   N/A     24   8  48 S2        30.14F
AURORA         CLEAR     21   7  55 SW3       30.15F
FRONT RANGE AP NOT AVBL
ERIE MUNI ARPT   N/A     20   8  61 SW3       30.14F
BOULDER MUN AP FAIR      27   9  46 S5        30.13F WCI  21
CENTENNIAL     FAIR      20   7  57 SW6       30.14S WCI  12
BROOMFIELD     CLEAR     25   7  46 CALM      30.14F
FORT COLLINS   FAIR      23   9  54 N9        30.13F WCI  13
LONGMONT       FAIR      18  10  68 CALM      30.16F
$$

COZ041-046-047-076>085-087-088-240500-
...PIKES PEAK/PALMER DIVIDE AND SOUTHERN FOOTHILLS...

CITY           SKY/WX    TMP DP  RH WIND       PRES   REMARKS
COLO. SPRINGS  FAIR      21   7  54 N12       30.15R WCI   9
A. F. ACADEMY  FAIR      11   3  70 N10       30.13S WCI  -2
ELLICOTT       NOT AVBL
FALCON         FAIR      17   5  58 NW10      30.12S WCI   5
FORT CARSON    FAIR      20   7  58 CALM      30.14S
LIMON          FAIR      21  12  68 NW17      30.12S WCI   7
MONUMENT HILL  FAIR      10   3  72 W8        30.10S WCI  -1
TRINIDAD         N/A    N/A N/A N/A MISG      30.17R
$$

COZ042>045-048>051-090-091-240500-
...NORTHEAST COLORADO...

CITY           SKY/WX    TMP DP  RH WIND       PRES   REMARKS
GREELEY ARPT   FAIR      19   5  53 N7        30.14F WCI  10
AKRON          FAIR      19  15  84 NW14      30.11F WCI   6
BURLINGTON     FAIR      22  15  75 NW15      30.10F WCI   9
WRAY           NOT AVBL
STERLING       FAIR      19  14  79 NW8       30.13F WCI   9
HOLYOKE        FAIR      27  21  80 NW12      30.12S WCI  16
FORT MORGAN    NOT AVBL
$$

COZ086-089-092>099-240500-
...SOUTHEAST COLORADO...

CITY           SKY/WX    TMP DP  RH WIND       PRES   REMARKS
PUEBLO         FAIR      26  10  50 N14       30.17R WCI  14
LA JUNTA       FAIR      27  16  63 N14       30.16S WCI  16
LAMAR          FAIR      30  19  63 NW12      30.14S WCI  20
SPRINGFIELD      N/A     26  18  71 N20G29    30.10S WCI  12
$$


USA.gov is the U.S. government's official web portal to all federal, state and local government web resources and services.